KB9YVI-11 Weather Reports


time (UTC)temp
F
wind
direction
speed
knots
gust
knots
rain 1hr
in
rain 24hr
in
rain mn
in
humidity
%
barometer
mb
20260906095638 73 358 1.7 6.1 0.00 0.00 0.00 100
20260906095138 73 47 4.3 7.0 0.00 0.00 0.00 100
20260906094638 73 53 0.0 7.8 0.00 0.00 0.00 100
20260906094138 73 29 0.9 5.2 0.00 0.00 0.00 100
20260906093638 73 37 0.0 4.3 0.00 0.00 0.00 100
20260906093139 73 73 2.6 2.6 0.00 0.00 0.00 100
20260906092639 73 274 0.0 7.8 0.00 0.00 0.00 100
20260906092137 73 11 0.0 6.1 0.00 0.00 0.00 100
20260906091639 73 61 0.0 5.2 0.00 0.00 0.00 100
20260906091139 73 42 0.0 6.1 0.00 0.00 0.00 100
20260906090639 73 49 0.0 5.2 0.00 0.00 0.00 100
20260906090139 73 77 2.6 3.5 0.00 0.00 0.00 100
20260906085639 73 120 0.9 3.5 0.00 0.00 0.00 100
20260906085139 73 14 0.0 3.5 0.00 0.00 0.00 100
20260906084639 73 354 2.6 6.1 0.00 0.00 0.00 100
20260906084139 73 29 0.0 4.3 0.00 0.00 0.00 100
20260906083639 73 282 0.0 6.1 0.00 0.00 0.00 100
20260906083139 73 50 0.9 4.3 0.00 0.00 0.00 100
20260906082639 73 354 0.0 3.5 0.00 0.00 0.00 100
20260906082138 73 52 1.7 4.3 0.00 0.00 0.00 100
20260906081639 73 57 1.7 3.5 0.00 0.00 0.00 100
20260906081139 73 66 0.9 3.5 0.00 0.00 0.00 100
20260906080639 73 70 0.9 1.7 0.00 0.00 0.00 100
20260906080139 73 15 0.0 1.7 0.00 0.00 0.00 100
20260906075639 73 29 1.7 3.5 0.00 0.00 0.00 100
20260906075139 73 39 0.9 2.6 0.00 0.00 0.00 100
20260906074639 73 87 1.7 4.3 0.00 0.00 0.00 100
20260906073639 73 19 1.7 2.6 0.00 0.00 0.00 100
20260906073139 73 43 0.0 1.7 0.00 0.00 0.00 100
20260906072639 73 60 0.0 1.7 0.00 0.00 0.00 100
20260906072138 73 32 0.0 0.9 0.00 0.00 0.00 100
20260906071639 73 40 0.0 1.7 0.00 0.00 0.00 100
20260906071139 74 33 1.7 1.7 0.00 0.00 0.00 100
20260906070639 74 70 0.0 2.6 0.00 0.00 0.00 100
20260906065639 74 39 0.0 1.7 0.00 0.00 0.00 100
20260906065139 74 23 0.0 2.6 0.00 0.00 0.00 100
20260906064639 74 47 0.0 2.6 0.00 0.00 0.00 100
20260906064139 74 87 0.0 2.6 0.00 0.00 0.00 100
20260906063139 74 37 0.0 0.0 0.00 0.00 0.00 100
20260906062639 74 37 0.0 0.0 0.00 0.00 0.00 100
20260906062138 75 37 0.0 0.0 0.00 0.00 0.00 100
20260906061639 75 37 0.0 0.0 0.00 0.00 0.00 100
20260906061139 75 37 0.0 2.6 0.00 0.00 0.00 100
20260906060639 75 1 0.0 2.6 0.00 0.00 0.00 100
20260906060139 75 16 0.0 3.5 0.00 0.00 0.00 100
20260906055639 75 50 2.6 3.5 0.00 0.00 0.00 100
20260906054639 75 11 0.0 1.7 0.00 0.00 0.00 100
20260906054139 75 22 1.7 3.5 0.00 0.00 0.00 100
20260906053639 76 21 3.5 3.5 0.00 0.00 0.00 100
20260906053139 76 71 0.0 1.7 0.00 0.00 0.00 100
20260906052639 76 329 0.0 0.0 0.00 0.00 0.00 100
20260906052138 76 329 0.0 0.9 0.00 0.00 0.00 100
20260906051639 76 47 0.0 2.6 0.00 0.00 0.00 100
20260906051139 76 29 0.0 2.6 0.00 0.00 0.00 100
20260906050639 76 4 0.0 1.7 0.00 0.00 0.00 100
20260906045639 76 52 0.0 1.7 0.00 0.00 0.00 100
20260906045139 77 21 0.0 0.0 0.00 0.00 0.00 100
20260906044639 77 21 0.0 0.0 0.00 0.00 0.00 100
20260906044139 77 21 0.0 0.0 0.00 0.00 0.00 100
20260906043639 77 21 0.0 1.7 0.00 0.00 0.00 100
20260906043139 77 347 0.0 0.0 0.00 0.00 0.00 100
20260906042639 77 347 0.0 0.9 0.00 0.00 0.00 100
20260906042138 77 338 0.0 0.0 0.00 0.00 0.00 100
20260906041639 77 338 0.0 0.9 0.00 0.00 0.00 100
20260906040139 78 30 0.0 1.7 0.00 0.00 0.00 100
20260906035639 78 323 0.0 1.7 0.00 0.00 0.00 100
20260906035140 78 49 0.0 2.6 0.00 0.00 0.00 100
20260906034640 78 284 0.0 3.5 0.00 0.00 0.00 100
20260906034140 79 358 1.7 4.3 0.00 0.00 0.00 100
20260906033640 79 285 0.0 0.0 0.00 0.00 0.00 100
20260906032640 79 305 0.0 0.9 0.00 0.00 0.00 100
20260906032138 79 25 0.0 0.9 0.00 0.00 0.00 100
20260906031640 79 70 0.0 1.7 0.00 0.00 0.00 100
20260906031140 80 285 0.0 1.7 0.00 0.00 0.00 100
20260906030640 80 57 0.0 1.7 0.00 0.00 0.00 100
20260906025640 80 299 0.0 0.9 0.00 0.00 0.00 100
20260906025140 80 299 0.0 1.7 0.00 0.00 0.00 100
20260906024142 80 322 0.0 3.5 0.00 0.00 0.00 100
20260906023640 80 170 0.0 1.7 0.00 0.00 0.00 100
20260906023140 80 298 1.7 1.7 0.00 0.00 0.00 100
20260906022640 81 28 0.9 2.6 0.00 0.00 0.00 100
20260906022139 81 264 0.0 5.2 0.00 0.00 0.00 100
20260906021640 81 313 0.0 3.5 0.00 0.00 0.00 100
20260906021140 81 317 0.9 2.6 0.00 0.00 0.00 100
20260906020640 81 16 0.0 3.5 0.00 0.00 0.00 100
20260906020140 82 347 0.0 3.5 0.00 0.00 0.00 100
20260906014640 82 14 2.6 4.3 0.00 0.00 0.00 100
20260906014140 82 133 0.0 3.5 0.00 0.00 0.00 100
20260906013140 82 344 0.9 4.3 0.00 0.00 0.00 100
20260906012139 82 292 0.0 4.3 0.00 0.00 0.00 100
20260906011640 83 351 0.0 4.3 0.00 0.00 0.00 100
20260906011140 83 275 0.9 1.7 0.00 0.00 0.00 100
20260906010640 83 292 0.0 1.7 0.00 0.00 0.00 100
20260906005640 83 329 0.0 0.0 0.00 0.00 0.00 100
20260906004640 84 329 0.0 0.0 0.00 0.00 0.00 100
20260906003640 84 329 0.0 0.0 0.00 0.00 0.00 99
20260906003140 85 329 0.0 0.0 0.00 0.00 0.00 99
20260906002640 85 254 0.0 0.0 0.00 0.00 0.00 98
20260906002139 85 254 0.0 0.0 0.00 0.00 0.00 98
20260906001640 86 267 0.0 2.6 0.00 0.00 0.00 99
20260906001140 86 268 0.0 0.0 0.00 0.00 0.00 98
20260906000640 87 268 0.0 0.0 0.00 0.00 0.00 98
20260906000140 87 268 0.0 0.0 0.00 0.00 0.00 97
20260905235140 88 268 0.0 0.0 0.00 0.00 0.00 95
20260905234640 88 268 0.0 0.0 0.00 0.00 0.00 94
20260905234140 88 268 0.0 0.9 0.00 0.00 0.00 93
20260905233640 89 261 0.0 0.9 0.00 0.00 0.00 92
20260905233140 89 319 0.0 3.5 0.00 0.00 0.00 90
20260905232640 90 302 0.0 3.5 0.00 0.00 0.00 89
20260905232139 90 265 2.6 2.6 0.00 0.00 0.00 89
20260905231640 90 264 0.0 2.6 0.00 0.00 0.00 87
20260905231140 91 309 1.7 4.3 0.00 0.00 0.00 87
20260905230140 91 234 0.0 4.3 0.00 0.00 0.00 84
20260905225640 92 300 0.9 4.3 0.00 0.00 0.00 84
20260905225140 92 324 4.3 4.3 0.00 0.00 0.00 83
20260905224140 92 251 0.0 5.2 0.00 0.00 0.00 82
20260905223640 92 343 0.0 1.7 0.00 0.00 0.00 83
20260905222139 92 310 0.0 6.1 0.00 0.00 0.00 81
20260905221640 92 306 3.5 7.0 0.00 0.00 0.00 82
20260905220641 92 293 0.0 1.7 0.00 0.00 0.00 82
20260905215641 92 292 0.0 5.2 0.00 0.00 0.00 80
20260905215141 93 282 2.6 6.1 0.00 0.00 0.00 80
20260905214641 93 291 1.7 5.2 0.00 0.00 0.00 80
20260905213141 93 309 2.6 6.1 0.00 0.00 0.00 79
20260905212139 93 291 0.0 7.0 0.00 0.00 0.00 79
20260905211642 93 313 4.3 5.2 0.00 0.00 0.00 78
20260905211141 93 312 0.0 6.1 0.00 0.00 0.00 80
20260905210142 93 270 0.0 5.2 0.00 0.00 0.00 80
20260905205641 93 198 0.0 3.5 0.00 0.00 0.00 80
20260905205141 93 316 2.6 7.8 0.00 0.00 0.00 79
20260905204642 93 258 1.7 3.5 0.00 0.00 0.00 81
20260905204142 93 315 1.7 7.0 0.00 0.00 0.00 79
20260905203641 93 322 2.6 7.8 0.00 0.00 0.00 79
20260905203141 93 291 1.7 5.2 0.00 0.00 0.00 79
20260905202642 93 300 3.5 8.7 0.00 0.00 0.00 78
20260905202140 93 289 0.9 6.1 0.00 0.00 0.00 79
20260905201642 93 232 3.5 7.8 0.00 0.00 0.00 77
20260905200142 93 302 1.7 8.7 0.00 0.00 0.00 76
20260905195641 93 306 4.3 7.0 0.00 0.00 0.00 75
20260905195141 93 267 4.3 5.2 0.00 0.00 0.00 78
20260905194641 93 236 0.9 4.3 0.00 0.00 0.00 78
20260905194142 93 244 1.7 8.7 0.00 0.00 0.00 75
20260905193641 93 302 4.3 7.0 0.00 0.00 0.00 76
20260905193141 94 327 1.7 7.8 0.00 0.00 0.00 75
20260905192641 94 278 1.7 9.6 0.00 0.00 0.00 75
20260905192140 94 5 0.9 5.2 0.00 0.00 0.00 78
20260905191641 93 217 2.6 5.2 0.00 0.00 0.00 79
20260905191141 93 300 1.7 6.1 0.00 0.00 0.00 78
20260905190641 92 201 3.5 6.1 0.00 0.00 0.00 78
20260905190141 92 260 1.7 8.7 0.00 0.00 0.00 77
20260905185641 92 275 4.3 5.2 0.00 0.00 0.00 78
20260905185141 92 262 3.5 7.0 0.00 0.00 0.00 80
20260905184641 92 229 6.1 6.1 0.00 0.00 0.00 80
20260905183641 91 226 0.9 6.1 0.00 0.00 0.00 82
20260905183141 90 268 2.6 5.2 0.00 0.00 0.00 83
20260905182641 90 268 0.0 0.9 0.00 0.00 0.00 83
20260905182140 90 268 0.0 4.3 0.00 0.00 0.00 81
20260905181641 91 295 0.9 6.1 0.00 0.00 0.00 81
20260905181141 91 258 3.5 5.2 0.00 0.00 0.00 80
20260905180643 91 220 1.7 7.0 0.00 0.00 0.00 81
20260905180141 90 177 0.9 6.1 0.00 0.00 0.00 83
20260905175641 90 219 3.5 6.1 0.00 0.00 0.00 82
20260905175141 90 315 2.6 7.0 0.00 0.00 0.00 82
20260905174641 90 189 0.9 5.2 0.00 0.00 0.00 81
20260905174141 90 174 0.9 4.3 0.00 0.00 0.00 81
20260905173643 90 202 1.7 4.3 0.00 0.00 0.00 81
20260905173141 90 222 1.7 5.2 0.00 0.00 0.00 81
20260905172641 89 185 1.7 5.2 0.00 0.00 0.00 82
20260905172140 89 171 2.6 7.0 0.00 0.00 0.00 81
20260905171641 89 167 7.0 7.0 0.00 0.00 0.00 82
20260905171141 89 133 3.5 7.0 0.00 0.00 0.00 81
20260905170141 89 206 4.3 9.6 0.00 0.00 0.00 81
20260905165641 89 14 7.0 7.8 0.00 0.00 0.00 81
20260905164641 89 184 3.5 7.8 0.00 0.00 0.00 80
20260905164141 89 192 0.0 6.1 0.00 0.00 0.00 80
20260905163142 89 198 1.7 6.1 0.00 0.00 0.00 80
20260905162642 89 146 2.6 4.3 0.00 0.00 0.00 80
20260905162140 88 115 1.7 7.8 0.00 0.00 0.00 79
20260905161643 88 209 0.9 7.0 0.00 0.00 0.00 82
20260905161143 88 139 5.2 7.8 0.00 0.00 0.00 81
20260905160642 87 130 7.0 9.6 0.00 0.00 0.00 79
20260905160142 87 142 5.2 9.6 0.00 0.00 0.00 80
20260905155642 87 150 4.3 8.7 0.00 0.00 0.00 81
20260905155142 86 142 5.2 12.2 0.00 0.00 0.00 82
20260905153642 85 142 4.3 7.0 0.00 0.00 0.00 88
20260905153142 84 149 2.6 6.1 0.00 0.00 0.00 87
20260905152642 84 140 2.6 7.8 0.00 0.00 0.00 89
20260905152141 83 102 6.1 8.7 0.00 0.00 0.00 88
20260905151642 83 153 3.5 10.4 0.00 0.00 0.00 89
20260905151142 83 157 1.7 10.4 0.00 0.00 0.00 89
20260905150642 83 222 1.7 7.8 0.00 0.00 0.00 91
20260905145642 82 144 7.0 9.6 0.00 0.00 0.00 92
20260905145142 82 139 5.2 13.0 0.00 0.00 0.00 92
20260905144642 81 98 2.6 12.2 0.00 0.00 0.00 93
20260905144143 81 130 6.1 10.4 0.00 0.00 0.00 93
20260905143642 81 109 4.3 9.6 0.00 0.00 0.00 94
20260905143142 81 108 4.3 8.7 0.00 0.00 0.00 93
20260905142642 81 147 6.1 9.6 0.00 0.00 0.00 92
20260905142141 81 146 5.2 8.7 0.00 0.00 0.00 93
20260905141642 81 137 2.6 10.4 0.00 0.00 0.00 95
20260905141142 80 120 7.8 13.0 0.00 0.00 0.00 95
20260905140642 80 181 6.1 13.9 0.00 0.00 0.00 95
20260905140142 80 104 4.3 7.8 0.00 0.00 0.00 96
20260905135142 79 178 4.3 13.0 0.00 0.00 0.00 98
20260905134642 79 133 3.5 10.4 0.00 0.00 0.00 99
20260905134142 78 105 6.1 13.9 0.00 0.00 0.00 99
20260905133142 78 118 5.2 11.3 0.00 0.00 0.00 100
20260905132642 77 125 5.2 11.3 0.00 0.00 0.00 100
20260905132141 77 109 9.6 13.0 0.00 0.00 0.00 100
20260905131642 77 81 3.5 7.0 0.00 0.00 0.00 100
20260905131142 76 60 1.7 7.0 0.00 0.00 0.00 100
20260905130642 76 104 4.3 10.4 0.00 0.00 0.00 100
20260905130142 76 95 6.1 10.4 0.00 0.00 0.00 100
20260905125642 75 60 0.0 7.0 0.00 0.00 0.00 100
20260905124642 75 53 0.0 8.7 0.00 0.00 0.00 100
20260905124142 75 140 4.3 8.7 0.00 0.00 0.00 100
20260905123642 74 81 3.5 5.2 0.00 0.00 0.00 100
20260905123142 74 50 0.0 7.0 0.00 0.00 0.00 100
20260905122642 74 32 1.7 9.6 0.00 0.00 0.00 100
20260905122141 74 85 3.5 3.5 0.00 0.00 0.00 100
20260905121642 74 184 0.0 0.0 0.00 0.00 0.00 100
20260905121142 74 184 0.0 0.0 0.00 0.00 0.00 100
20260905120142 74 184 0.0 0.0 0.00 0.00 0.00 100
20260905115642 74 184 0.0 0.0 0.00 0.00 0.00 100
20260905115142 74 184 0.0 0.0 0.00 0.00 0.00 100
20260905114642 74 184 0.0 0.0 0.00 0.00 0.00 100
20260905114142 74 184 0.0 0.0 0.00 0.00 0.00 100
20260905113142 74 184 0.0 0.0 0.00 0.00 0.00 100
20260905112642 74 184 0.0 0.0 0.00 0.00 0.00 100
20260905112141 74 184 0.0 0.0 0.00 0.00 0.00 100
20260905111142 74 184 0.0 0.0 0.00 0.00 0.00 100
20260905110642 74 184 0.0 0.0 0.00 0.00 0.00 100
20260905110142 74 184 0.0 0.0 0.00 0.00 0.00 100
20260905105642 74 184 0.0 0.0 0.00 0.00 0.00 100
20260905105143 74 184 0.0 0.0 0.00 0.00 0.00 100
20260905104643 74 184 0.0 0.0 0.00 0.00 0.00 100
20260905104143 74 184 0.0 0.0 0.00 0.00 0.00 100
20260905103643 74 184 0.0 0.0 0.00 0.00 0.00 100
20260905103143 74 184 0.0 0.0 0.00 0.00 0.00 100
20260905102644 75 184 0.0 0.0 0.00 0.00 0.00 100
20260905102141 75 184 0.0 0.0 0.00 0.00 0.00 100
20260905101643 75 184 0.0 0.0 0.00 0.00 0.00 100
20260905101143 75 184 0.0 0.0 0.00 0.00 0.00 100
20260905100143 75 184 0.0 0.0 0.00 0.00 0.00 100